Abraham Lincoln Capital Airport Airport (SPI)

 

Airport Diagram
Current Weather/Forecast (VFR Conditions)
METAR KSPI 241352Z 13013KT 10SM OVC055 06/04 A3013 RMK AO2 RAE42 SLP208 P0000 T00610044
TAF KSPI 241135Z 2412/2512 13012KT P6SM VCSH OVC060 FM241500 15013G23KT P6SM OVC060 FM250400 17010G18KT 6SM SHRA BR OVC025 FM250600 16009KT 5SM SHRA BR OVC015 FM250800 16009KT 3SM SHRA BR OVC008

All Charts
General
Chart Name Download
AIRPORT DIAGRAM
TAKEOFF MINIMUMS
ALTERNATE MINIMUMS
RADAR MINIMUMS
HOT SPOT
LAHSO

Approaches
Chart Name Download
ILS OR LOC RWY 04
ILS OR LOC RWY 22
ILS OR LOC RWY 31
RNAV (GPS) RWY 04
RNAV (GPS) RWY 13
RNAV (GPS) RWY 22
RNAV (GPS) RWY 31
VOR/DME RWY 13
VOR/DME RWY 22
VOR/DME RWY 31
VOR RWY 04


Inbound Traffic (Arrivals)

No inbound traffic.


Outbound Traffic (Departures)

No outbound traffic.